Hourly Weather Roundup
Issued by NWS Central Illinois

Home | Current Version | Previous Version | Text Only | Print | Product List | Glossary On
Versions: 1 2 3 4 5 6 7 8 9 10 11 12 13 14 15 16 17 18 19 20 21 22 23 24 25 26 27 28 29 30 31 32 33 34 35 36 37 38 39 40 41 42 43 44 45 46 47 48 49 50
000
NZUS43 KILX 100610
HWRILX

AREA WEATHER ROUNDUP
NATIONAL WEATHER SERVICE, LINCOLN IL
1200 AM CST WED FEB 10 2016


CITY           SKY/WX    TMP DP  RH WIND       PRES   REMARKS
BLOOMINGTON    PTCLDY    12   4  70 NW16      30.02S WCI  -5
6HR MIN TEMP:  12; 6HR MAX TEMP:  16; 6HR PCP: TRACE;

CHAMPAIGN      CLOUDY    15   8  73 NW16      30.01S WCI  -1
6HR MIN TEMP:  15; 6HR MAX TEMP:  18; 6HR PCP: TRACE;

DANVILLE       PTCLDY    12   7  79 NW12      29.96S WCI  -2
6HR MIN TEMP:  12; 6HR MAX TEMP:  16;

DECATUR        CLOUDY    14   5  67 NW17G24   30.05S WCI  -3
6HR MIN TEMP:  14; 6HR MAX TEMP:  18; 6HR PCP: TRACE;

EFFINGHAM      CLOUDY    16   9  73 W16       30.08S WCI   0
FLORA          CLOUDY    19   9  65 NW16G23   30.08S WCI   4
6HR MIN TEMP:  19; 6HR MAX TEMP:  21;

GALESBURG      CLEAR     10   4  79 W12       30.08R WCI  -5
JACKSONVILLE   PTCLDY    15   7  71 NW10G20   30.12R WCI   2
6HR MIN TEMP:  15; 6HR MAX TEMP:  19;

LACON          CLEAR     11   4  71 NW10G17   30.04S WCI  -2
6HR MIN TEMP:  11; 6HR MAX TEMP:  16;

LAWRENCEVILLE  CLOUDY    18  10  71 NW15      30.05S WCI   4
6HR MIN TEMP:  18; 6HR MAX TEMP:  20; 6HR PCP: TRACE;

LITCHFIELD     MOCLDY    14   5  68 NW20G26   30.10S WCI  -3
$$


CITY           SKY/WX    TMP DP  RH WIND       PRES   REMARKS
LINCOLN        CLOUDY    14   8  75 NW7G17    30.07S WCI   4
6HR MIN TEMP:  14; 6HR MAX TEMP:  18;

MACOMB         CLEAR     11   6  78 NW14      30.12S WCI  -4
MATTOON        CLOUDY    14   5  67 NW18      30.02S WCI  -3
6HR MIN TEMP:  14; 6HR MAX TEMP:  17; 6HR PCP: TRACE;

MT CARMEL AP   CLOUDY    19  10  68 NW13      30.06S WCI   7
OLNEY-NOBLE AP CLOUDY    18  10  73 NW15G21   30.07S WCI   3
PARIS          LGT SNOW  15  11  86 NW10      30.02R WCI   2
6HR MIN TEMP:  15; 6HR MAX TEMP:  18;

PEORIA         CLEAR     12   3  67 NW9       30.07R WCI   0
6HR MIN TEMP:  12; 6HR MAX TEMP:  16; 6HR PCP: TRACE;

PONTIAC        PTCLDY    12   6  76 W13       30.01S WCI  -3
RANTOUL        CLOUDY    15   9  75 NW15G23   29.99F WCI   0
6HR MIN TEMP:  15; 6HR MAX TEMP:  19;

ROBINSON       FLURRIES  17  10  76 NW15      30.06S WCI   2
6HR MIN TEMP:  17; 6HR MAX TEMP:  19;

SPRINGFIELD    CLEAR     14   5  67 NW14      30.09S WCI  -1
6HR MIN TEMP:  14; 6HR MAX TEMP:  19; 6HR PCP: TRACE;

TAYLORVILLE    CLOUDY    14   7  73 NW17G26   30.09R WCI  -3
$$

...REGIONAL REPORTS...


CITY           SKY/WX    TMP DP  RH WIND       PRES   REMARKS
CHICAGO O`HARE CLOUDY    15   5  64 NW16      29.94S WCI  -1
KANKAKEE       CLOUDY    15   6  69 W10G16    29.97F WCI   2
MOLINE         CLEAR     12   1  61 NW10      30.09R WCI  -1
MOUNT STERLING PTCLDY    12   5  73 NW14      30.12R WCI  -3
MOUNT VERNON   CLEAR     18   3  53 NW7       30.09S WCI   8
PITTSFIELD     PTCLDY    15   7  71 NW9       30.14S WCI   3
QUINCY         MOCLDY    14   5  67 NW17      30.13S WCI  -3
ROCKFORD       CLOUDY    13   2  61 NW10      30.01R WCI   0
$$


CITY           SKY/WX    TMP DP  RH WIND       PRES   REMARKS
BURLINGTON     CLEAR     12   3  67 NW10      30.11S WCI  -1
CEDAR RAPIDS   CLEAR     10   2  69 NW12      30.10S WCI  -5
DES MOINES     PTCLDY    15   6  67 N7        30.19R WCI   5
KIRKSVILLE     CLEAR     15   6  67 NW10      30.17S WCI   2
OTTUMWA        CLEAR     12   7  80 NW12      30.16R WCI  -2
ST LOUIS       FLURRIES  19   9  63 NW15G23   30.14R WCI   5
$$


CITY           SKY/WX    TMP DP  RH WIND       PRES   REMARKS
TERRE HAUTE    CLOUDY    15   9  76 W8        30.01S WCI   4
EVANSVILLE     FLURRIES  20  10  65 NW9       30.08S WCI   9
INDIANAPOLIS   LGT SNOW  15  11  83 W10       29.93S WCI   2
LAFAYETTE      LGT SNOW  14  10  84 W13       29.96R FOG     WCI   0
MADISON        CLOUDY    10   2  69 N10       29.99R WCI  -4
MILWAUKEE      MOCLDY    14   5  67 NW12      29.93S WCI   0
$$





USA.gov is the U.S. government's official web portal to all federal, state and local government web resources and services.